Weather in Gornorechensk

Russia / Khanty-Mansi Autonomous Okrug — Yugra     61°47′21″N   67°36′02″E
temp.,
°C
wind,
m/s
gust,
m/s
humid.,
%
clouds,
%
prec.,
mm/h
press.,
hPa
HPBL,
m
11 april, sun
sun1123:000se2294100 0.1 103635
02:00+1e3695100 0.0 1034158
05:00+1se4898100 0.8 1032229
08:00+2se59100100 3.1 1029225
11:00+2sse510100100 7.6 1026299
14:00+3ssw411100100 3.1 1024322
17:00+3sw410100100 3.1 1024243
20:00+3sw410100100 0.0 1023231
12 april, mon
mon1223:00+2w41099100 0.0 1023298
02:00+1wsw411915 0.0 1024261
05:000w511915 0.0 1026236
08:00+1wsw512915 0.0 1026438
11:00+4w611805 0.0 1027758
14:00+5wnw712725 0.1 10281327
17:00+5w712675 0.1 1029841
20:00+2w613765 0.0 1030300
13 april, tue
tue1323:00+1w511865 0.1 1031269
02:00+1w5118882 0.0 1032322
05:000w5119124 0.0 1032319
08:00+2wsw61385100 0.0 1032505
11:00+5w7136597 0.0 1031817
14:00+6w61165100 0.0 1030733
17:00+6w51174100 0.0 1029399
20:00+4sw41084100 0.0 1028158
14 april, wed
wed1423:00+3sw41086100 0.0 1026153
02:00+3sw4884100 0.0 1023140
05:00+2sw4986100 0.0 1021185
08:00+5w51385100 0.0 1020477
11:00+5w51192100 0.0 1021353
14:00+5w3895100 0.3 1021197
17:00+8w358958 0.3 1021314
20:00+6ssw349134 0.0 102048
15 april, thu
thu1523:00+7ssw41191100 0.0 1017183
02:00+7sw5139169 0.0 1014282
05:00+6sw61391100 0.0 1012256
08:00+9wsw7158291 0.0 1011605
11:00+9wnw71280100 0.1 1011659
14:00+8nw71157100 0.1 10141396
17:00+7n5763100 0.1 10161087
20:00+4nne4666100 0.0 1018291